Mackinac Island, MI

6:26 AM EST on November 22, 2017 (GMT -0500)
Mackinac Island

Weather History for KMCD - October, 2013

Change the Weather History Date:

Saturday, October 5, 2013

  Actual Average Record
Temperature  
Mean Temperature 52 °F -  
Max Temperature 56 °F 56 °F 82 °F (2005)
Min Temperature 49 °F 43 °F 32 °F (1980)
Degree Days  
Heating Degree Days 12    
Growing Degree Days 2 (Base 50)    
Moisture  
Dew Point 49 °F    
Average Humidity 89    
Maximum Humidity 99    
Minimum Humidity 74    
Precipitation  
Precipitation 2.51 in - - ()
Sea Level Pressure  
Sea Level Pressure 30.06 in    
Wind  
Wind Speed 13 mph (East)    
Max Wind Speed 21 mph    
Max Gust Speed 36 mph    
Visibility 8 miles    
Events Rain    
Averages and records for this station are not official NWS values.
T = Trace of Precipitation, MM = Missing Value Source: NWS Daily Summary

Daily Weather History Graph

Daily Weather History Graph

Search for Another Location

Airport or City:

Trip Planner

Search our weather history database for the weather conditions in past years. The results will help you decide how hot, cold, wet, or windy it might be!

Date:

Astronomy

Oct. 05, 2013 Rise Set
Actual Time 7:42 AM EDT 7:10 PM EDT
Civil Twilight 7:12 AM EDT 7:40 PM EDT
Nautical Twilight 6:38 AM EDT 8:14 PM EDT
Astronomical Twilight 6:03 AM EDT 8:49 PM EDT
Moon 8:24 AM EDT (10/5) 7:23 PM EDT (10/5)
Length of Visible Light 12h 27m
Length of Day
11h 28m
New Moon, 0% of the Moon is Illuminated
Oct 5
New Moon
Oct 11
First Quarter
Oct 18
Full
Oct 26
Last Quarter
Nov 3
New

Hourly Weather History & Observations

Time (EDT) Temp. Dew Point Humidity Pressure Visibility Wind Dir Wind Speed Gust Speed Precip Events Conditions
12:17 AM 56.7 °F 51.3 °F 82% 30.13 in 10.0 mi ENE 10.4 mph - N/A   Overcast
12:38 AM 56.3 °F 51.3 °F 83% 30.14 in 10.0 mi ENE 8.1 mph - N/A   Overcast
12:58 AM 56.3 °F 50.5 °F 81% 30.14 in 10.0 mi ENE 10.4 mph 17.3 mph N/A   Overcast
1:17 AM 56.3 °F 50.2 °F 80% 30.13 in 10.0 mi ENE 10.4 mph - N/A   Overcast
1:38 AM 55.6 °F 50.0 °F 81% 30.13 in 10.0 mi ENE 10.4 mph - N/A   Overcast
1:58 AM 54.1 °F 50.5 °F 88% 30.13 in 10.0 mi ENE 11.5 mph 17.3 mph 0.01 in Rain Rain
2:17 AM 54.1 °F 50.9 °F 89% 30.13 in 10.0 mi ENE 9.2 mph 16.1 mph N/A Rain Light Rain
2:38 AM 54.5 °F 50.4 °F 86% 30.12 in 10.0 mi ENE 11.5 mph 19.6 mph N/A   Overcast
2:58 AM 54.5 °F 50.5 °F 86% 30.11 in 10.0 mi ENE 12.7 mph 18.4 mph N/A   Overcast
3:17 AM 54.0 °F 50.4 °F 88% 30.10 in 10.0 mi ENE 12.7 mph 16.1 mph N/A   Overcast
3:38 AM 53.8 °F 50.2 °F 88% 30.10 in 10.0 mi ENE 11.5 mph 20.7 mph N/A   Overcast
3:58 AM 53.6 °F 50.0 °F 88% 30.11 in 10.0 mi ENE 6.9 mph 17.3 mph N/A   Overcast
4:17 AM 54.0 °F 50.4 °F 88% 30.12 in 10.0 mi East 10.4 mph - N/A   Overcast
4:38 AM 54.1 °F 50.2 °F 86% 30.12 in 10.0 mi East 9.2 mph - N/A   Overcast
4:57 AM 54.5 °F 50.2 °F 85% 30.12 in 10.0 mi East 11.5 mph 18.4 mph N/A   Overcast
5:18 AM 54.3 °F 50.2 °F 86% 30.10 in 10.0 mi ENE 10.4 mph 19.6 mph N/A   Overcast
5:38 AM 53.6 °F 49.5 °F 86% 30.11 in 10.0 mi ENE 13.8 mph 20.7 mph N/A   Overcast
5:57 AM 53.1 °F 48.4 °F 84% 30.09 in 10.0 mi ENE 12.7 mph 23.0 mph N/A   Overcast
6:18 AM 52.7 °F 46.4 °F 79% 30.12 in 10.0 mi ENE 9.2 mph 23.0 mph N/A   Overcast
6:38 AM 52.7 °F 46.0 °F 78% 30.12 in 10.0 mi ENE 13.8 mph 19.6 mph N/A   Overcast
6:57 AM 52.9 °F 45.9 °F 77% 30.12 in 10.0 mi East 15.0 mph 24.2 mph N/A   Overcast
7:18 AM 53.1 °F 45.5 °F 75% 30.11 in 10.0 mi East 16.1 mph 24.2 mph N/A   Overcast
7:38 AM 52.7 °F 44.8 °F 74% 30.12 in 10.0 mi East 15.0 mph 24.2 mph N/A   Overcast
7:57 AM 52.7 °F 44.6 °F 74% 30.12 in 10.0 mi East 13.8 mph 25.3 mph N/A   Overcast
8:18 AM 52.3 °F 44.6 °F 75% 30.14 in 10.0 mi East 12.7 mph 25.3 mph N/A   Overcast
8:38 AM 50.7 °F 45.7 °F 83% 30.12 in 2.0 mi East 16.1 mph 24.2 mph 0.02 in   Unknown
8:57 AM 50.4 °F 45.9 °F 85% 30.13 in 2.5 mi East 16.1 mph 21.9 mph 0.04 in   Overcast
9:18 AM 50.0 °F 46.6 °F 88% 30.13 in 2.5 mi East 15.0 mph 24.2 mph 0.02 in   Unknown
9:38 AM 49.6 °F 46.8 °F 90% 30.12 in 2.5 mi East 15.0 mph 26.5 mph 0.05 in   Unknown
9:58 AM 49.5 °F 47.1 °F 92% 30.09 in 5.0 mi East 17.3 mph 26.5 mph 0.07 in Rain Light Rain
10:18 AM 49.6 °F 47.3 °F 92% 30.11 in 7.0 mi East 12.7 mph 24.2 mph 0.01 in Rain Light Rain
10:38 AM 50.0 °F 47.7 °F 92% 30.10 in 10.0 mi East 13.8 mph 28.8 mph 0.01 in   Unknown
10:58 AM 50.4 °F 48.0 °F 92% 30.07 in 10.0 mi East 18.4 mph 32.2 mph 0.01 in Rain Light Rain
11:18 AM 50.9 °F 48.2 °F 90% 30.08 in 10.0 mi East 16.1 mph 31.1 mph N/A   Overcast
11:38 AM 51.1 °F 48.2 °F 90% 30.08 in 10.0 mi East 15.0 mph 27.6 mph N/A   Overcast
11:58 AM 51.3 °F 48.2 °F 89% 30.08 in 10.0 mi East 13.8 mph 25.3 mph N/A   Overcast
12:18 PM 51.8 °F 48.2 °F 88% 30.08 in 10.0 mi East 15.0 mph 26.5 mph N/A   Overcast
12:38 PM 52.0 °F 48.4 °F 88% 30.06 in 10.0 mi East 20.7 mph 31.1 mph N/A   Overcast
12:58 PM 52.2 °F 48.6 °F 88% 30.07 in 10.0 mi East 15.0 mph 27.6 mph N/A   Overcast
1:18 PM 52.2 °F 48.9 °F 89% 30.07 in 10.0 mi East 16.1 mph 28.8 mph N/A   Overcast
1:38 PM 52.2 °F 48.9 °F 89% 30.06 in 10.0 mi East 15.0 mph 24.2 mph N/A   Overcast
1:58 PM 52.2 °F 48.7 °F 88% 30.06 in 10.0 mi East 16.1 mph 26.5 mph N/A   Overcast
2:18 PM 52.2 °F 48.7 °F 88% 30.05 in 10.0 mi East 17.3 mph 26.5 mph N/A   Overcast
2:38 PM 52.7 °F 49.1 °F 88% 30.05 in 10.0 mi East 13.8 mph 23.0 mph N/A   Overcast
2:58 PM 52.2 °F 48.6 °F 88% 30.05 in 10.0 mi East 17.3 mph 24.2 mph N/A   Overcast
3:18 PM 52.2 °F 48.4 °F 87% 30.04 in 10.0 mi East 13.8 mph 25.3 mph N/A   Overcast
3:38 PM 52.7 °F 48.7 °F 86% 30.03 in 10.0 mi East 15.0 mph 33.4 mph N/A   Overcast
3:58 PM 52.3 °F 48.4 °F 86% 30.03 in 10.0 mi East 13.8 mph 23.0 mph N/A   Overcast
4:18 PM 52.7 °F 48.9 °F 87% 30.02 in 10.0 mi East 16.1 mph 25.3 mph N/A   Overcast
4:38 PM 52.7 °F 48.9 °F 87% 30.02 in 10.0 mi East 11.5 mph 24.2 mph N/A   Overcast
4:58 PM 52.7 °F 48.9 °F 87% 30.01 in 10.0 mi East 17.3 mph 25.3 mph N/A   Overcast
5:18 PM 51.8 °F 48.9 °F 90% 30.00 in 7.0 mi East 12.7 mph 29.9 mph N/A   Overcast
5:38 PM 52.0 °F 49.1 °F 90% 30.00 in 10.0 mi East 17.3 mph 28.8 mph N/A   Overcast
5:58 PM 52.2 °F 49.3 °F 90% 30.00 in 10.0 mi East 15.0 mph 25.3 mph N/A Rain Light Rain
6:18 PM 52.0 °F 50.0 °F 93% 30.00 in 7.0 mi East 16.1 mph 24.2 mph 0.01 in Rain Light Rain
6:38 PM 51.8 °F 50.0 °F 94% 30.00 in 3.0 mi East 16.1 mph 28.8 mph 0.04 in   Unknown
6:58 PM 51.8 °F 50.2 °F 94% 30.00 in 3.0 mi East 16.1 mph 27.6 mph 0.10 in   Unknown
7:18 PM 51.6 °F 50.2 °F 95% 29.99 in 2.0 mi East 18.4 mph 27.6 mph 0.10 in   Unknown
7:38 PM 51.6 °F 50.5 °F 96% 29.99 in 2.5 mi East 19.6 mph 28.8 mph 0.17 in   Unknown
7:58 PM 51.6 °F 50.5 °F 96% 29.99 in 1.0 mi East 20.7 mph 35.7 mph 0.33 in   Unknown
8:18 PM 51.3 °F 50.5 °F 97% 29.99 in 0.8 mi East 15.0 mph 29.9 mph 0.32 in   Unknown
8:38 PM 51.1 °F 50.5 °F 98% 29.98 in 1.2 mi East 17.3 mph 33.4 mph 0.75 in   Unknown
8:58 PM 50.9 °F 50.4 °F 98% 29.99 in 1.2 mi East 11.5 mph 28.8 mph 1.04 in   Unknown
9:18 PM 50.9 °F 50.4 °F 98% 30.00 in 5.0 mi East 12.7 mph 21.9 mph 0.12 in   Unknown
9:38 PM 50.9 °F 50.0 °F 97% 30.01 in 3.0 mi East 16.1 mph 23.0 mph 0.20 in   Unknown
9:58 PM 50.9 °F 50.4 °F 98% 29.98 in 1.2 mi East 18.4 mph 31.1 mph 0.43 in   Unknown
10:18 PM 50.9 °F 50.4 °F 98% 29.98 in 2.0 mi East 19.6 mph 28.8 mph 0.10 in   Unknown
10:38 PM 51.1 °F 50.9 °F 99% 29.96 in 2.5 mi East 16.1 mph 24.2 mph 0.20 in   Overcast
10:58 PM 51.1 °F 50.5 °F 98% 29.97 in 3.0 mi East 15.0 mph 27.6 mph 0.27 in   Unknown
11:18 PM 50.9 °F 50.4 °F 98% 29.95 in 2.5 mi East 17.3 mph 31.1 mph 0.05 in   Unknown
11:38 PM 50.9 °F 50.4 °F 98% 29.95 in 2.5 mi East 15.0 mph 31.1 mph 0.11 in   Unknown
11:58 PM 51.3 °F 50.9 °F 99% 29.93 in 2.5 mi East 18.4 mph 34.5 mph 0.21 in   Unknown